This is the latest recevied weather packets stored in our database for station/object OH7GGX-14. If no packets are shown the sender has not sent any weather packets the latest 10 day(s).
| Time | Temp. | Humidity | Pressure | Rain* | Wind** | Luminosity | Snow |
|---|---|---|---|---|---|---|---|
| 1777732300 | 18.89° C | 34% | 1005.9 hPa | 0 mm | - | - | - |
| 1777731700 | 19.44° C | 33% | 1006 hPa | 0 mm | - | - | - |
| 1777731100 | 19.44° C | 32% | 1006.1 hPa | 0 mm | - | - | - |
| 1777730500 | 19.44° C | 31% | 1006.1 hPa | 0 mm | - | - | - |
| 1777729900 | 20° C | 31% | 1006.3 hPa | 0 mm | - | - | - |
| 1777729300 | 20° C | 30% | 1006.4 hPa | 0 mm | - | - | - |
| 1777728700 | 20° C | 29% | 1006.6 hPa | 0 mm | - | - | - |
| 1777728100 | 20.56° C | 29% | 1006.7 hPa | 0 mm | - | - | - |
| 1777727500 | 20.56° C | 28% | 1006.6 hPa | 0 mm | - | - | - |
| 1777725100 | 21.11° C | 26% | 1007.4 hPa | 0 mm | - | - | - |
| 1777723900 | 21.11° C | 26% | 1007.5 hPa | 0 mm | - | - | - |
| 1777723302 | 21.11° C | 26% | 1007.5 hPa | 0 mm | - | - | - |
| 1777722700 | 21.11° C | 25% | 1007.8 hPa | 0 mm | - | - | - |
| 1777722100 | 21.11° C | 22% | 1007.8 hPa | 0 mm | - | - | - |
| 1777721500 | 20.56° C | 23% | 1008.1 hPa | 0 mm | - | - | - |
| 1777720900 | 20.56° C | 23% | 1008.3 hPa | 0 mm | - | - | - |
| 1777720300 | 20.56° C | 22% | 1008.5 hPa | 0 mm | - | - | - |
| 1777719700 | 20.56° C | 24% | 1008.5 hPa | 0 mm | - | - | - |
| 1777719100 | 20.56° C | 26% | 1008.8 hPa | 0 mm | - | - | - |
| 1777718500 | 20.56° C | 26% | 1008.9 hPa | 0 mm | - | - | - |
| 1777717900 | 20° C | 28% | 1009.3 hPa | 0 mm | - | - | - |
| 1777717300 | 20° C | 29% | 1009.4 hPa | 0 mm | - | - | - |
| 1777716701 | 19.44° C | 29% | 1009.5 hPa | 0 mm | - | - | - |
| 1777716101 | 19.44° C | 32% | 1009.7 hPa | 0 mm | - | - | - |
| 1777715501 | 18.89° C | 32% | 1010.1 hPa | 0 mm | - | - | - |
* Rain latest hour (hover to see other rain measurements)
** Current wind speed in m/s (hover to see current wind gust speed)